Location: Lake Arresoe
(56.0000°N, 12.5000°E)
Time: 11:32:09
(UTC+02:00)

Cosmos 1674 - Pass Details

Date: 21 August 2020
Orbit: 495 x 517 km, 82.5° (Epoch: 23 September)

Event Time Altitude Azimuth Distance (km) Brightness Sun altitude
Rises 23:03:03 0° 360° (N) 2,610 7.3 -17.1°
Reaches altitude 10° 23:06:25 10° 32° (NNE) 1,724 5.7 -17.3°
Maximum altitude 23:07:56 12° 56° (NE) 1,599 5.2 -17.4°
Enters shadow 23:09:19 10° 78° (ENE) 1,703 5.1 -17.5°
